Location: Unspecified
(0.0000°N, 0.0000°E)
Time: 18:33:25
(UTC+00:00)

Vanguard 3 - Pass Details

Date: 01 October 2023
Orbit: 507 x 3241 km, 33.3° (Epoch: 29 November)

Event Time Altitude Azimuth Distance (km) Brightness Sun altitude
Rises 02:28:27 0° 295° (WNW) 2,588 - -50.3°
Reaches altitude 10° 02:30:29 10° 289° (WNW) 1,739 - -49.8°
Maximum altitude 02:34:07 49° 213° (SSW) 767 - -48.8°
Drops below altitude 10° 02:39:01 10° 138° (SE) 2,335 - -47.6°
Exits shadow 02:40:19 - 135° (SE) 2,867 10.4 -47.3°
Sets 02:42:10 0° 132° (SE) 3,618 11.0 -46.8°
